When you browse on this site, cookies collect data to enhance your experience and personalize the content and advertising you see.
Visit our Privacy Policy to learn more. By continuing to use the site, you agree to this use of cookies and data.
  • en France
  • Liste des pays
  • À 7 jours
  • Température de l'eau
  • Carte satellitaire
  • Carte météo
  • Widgets météo
  • user-avatar
    Se connecter

    Météo par heure à Paris

    Ce jour, 16 Janvier, Mercredi

    Heure Température Précipitation Vent Pression Humidité
    00:00 +6°C° 0 mm 1 m/s 759 mmHg 76%
    01:00 +6°C° 0 mm 1 m/s 759 mmHg 77%
    02:00 +5°C° 0 mm 2 m/s 758 mmHg 78%
    03:00 +4°C° 0 mm 2 m/s 757 mmHg 79%
    04:00 +4°C° 0 mm 2 m/s 757 mmHg 79%
    05:00 +4°C° 0 mm 2 m/s 757 mmHg 79%
    06:00 +3°C° 0 mm 2 m/s 756 mmHg 80%
    07:00 +3°C° 0 mm 2 m/s 756 mmHg 80%
    08:00 +3°C° 0 mm 2 m/s 756 mmHg 80%
    09:00 +2°C° 0 mm 3 m/s 755 mmHg 80%
    10:00 +3°C° 0 mm 3 m/s 755 mmHg 76%
    11:00 +4°C° 0 mm 3 m/s 755 mmHg 72%
    12:00 +5°C° 0 mm 3 m/s 754 mmHg 69%
    13:00 +5°C° 0 mm 4 m/s 754 mmHg 67%
    14:00 +5°C° 0 mm 4 m/s 753 mmHg 66%
    15:00 +6°C° 0 mm 4 m/s 752 mmHg 65%
    16:00 +5°C° 0 mm 4 m/s 752 mmHg 69%
    17:00 +5°C° 0 mm 5 m/s 751 mmHg 73%
    18:00 +5°C° 0 mm 5 m/s 751 mmHg 78%
    19:00 +5°C° 0 mm 5 m/s 751 mmHg 79%
    20:00 +5°C° 0 mm 6 m/s 751 mmHg 81%
    21:00 +5°C° 0 mm 6 m/s 751 mmHg 83%
    22:00 +6°C° 0.5 mm 5 m/s 751 mmHg 84%
    23:00 +6°C° 0.5 mm 5 m/s 751 mmHg 86%

    Demain, 17 Janvier, Jeudi

    Heure Température Précipitation Vent Pression Humidité
    00:00 +6°C° 0.5 mm 4 m/s 751 mmHg 88%
    01:00 +6°C° 0.1 mm 4 m/s 751 mmHg 87%
    02:00 +6°C° 0.1 mm 4 m/s 751 mmHg 86%
    03:00 +5°C° 0.1 mm 3 m/s 751 mmHg 85%
    04:00 +5°C° 0 mm 4 m/s 751 mmHg 84%
    05:00 +5°C° 0 mm 4 m/s 751 mmHg 83%
    06:00 +4°C° 0 mm 4 m/s 752 mmHg 82%
    07:00 +4°C° 0 mm 4 m/s 752 mmHg 80%
    08:00 +4°C° 0 mm 4 m/s 753 mmHg 78%
    09:00 +5°C° 0 mm 4 m/s 754 mmHg 75%
    10:00 +5°C° 0 mm 4 m/s 754 mmHg 70%
    11:00 +6°C° 0 mm 4 m/s 755 mmHg 65%
    12:00 +7°C° 0 mm 4 m/s 755 mmHg 60%
    13:00 +7°C° 0.1 mm 4 m/s 756 mmHg 61%
    14:00 +7°C° 0.1 mm 4 m/s 756 mmHg 61%
    15:00 +6°C° 0.1 mm 4 m/s 756 mmHg 62%
    16:00 +7°C° 0 mm 3 m/s 757 mmHg 64%
    17:00 +5°C° 0 mm 3 m/s 758 mmHg 66%
    18:00 +4°C° 0 mm 3 m/s 758 mmHg 68%
    19:00 +4°C° 0 mm 2 m/s 759 mmHg 67%
    20:00 +4°C° 0 mm 2 m/s 759 mmHg 67%
    21:00 +4°C° 0 mm 1 m/s 760 mmHg 66%
    22:00 +4°C° 0 mm 1 m/s 760 mmHg 67%
    23:00 +3°C° 0 mm 1 m/s 760 mmHg 67%

    Après-demain, 18 Janvier, Vendredi

    Heure Température Précipitation Vent Pression Humidité
    00:00 +2°C° 0 mm 0 m/s 760 mmHg 68%
    01:00 +2°C° 0 mm 0 m/s 760 mmHg 68%
    02:00 +3°C° 0 mm 1 m/s 760 mmHg 69%
    03:00 +3°C° 0 mm 1 m/s 760 mmHg 69%
    04:00 +3°C° 0 mm 1 m/s 760 mmHg 69%
    05:00 +3°C° 0 mm 1 m/s 760 mmHg 70%
    06:00 +2°C° 0 mm 2 m/s 760 mmHg 70%
    07:00 +2°C° 0 mm 2 m/s 760 mmHg 70%
    08:00 +2°C° 0 mm 2 m/s 760 mmHg 71%
    09:00 +2°C° 0 mm 2 m/s 760 mmHg 71%
    10:00 +3°C° 0 mm 2 m/s 759 mmHg 69%
    11:00 +4°C° 0 mm 2 m/s 759 mmHg 67%
    12:00 +5°C° 0 mm 2 m/s 759 mmHg 65%
    13:00 +4°C° 0 mm 3 m/s 758 mmHg 65%
    14:00 +4°C° 0 mm 3 m/s 758 mmHg 66%
    15:00 +4°C° 0 mm 3 m/s 757 mmHg 66%
    16:00 +4°C° 0 mm 3 m/s 757 mmHg 69%
    17:00 +4°C° 0 mm 3 m/s 757 mmHg 71%
    18:00 +3°C° 0 mm 3 m/s 757 mmHg 74%
    19:00 +3°C° 0 mm 3 m/s 757 mmHg 77%
    20:00 +3°C° 0 mm 3 m/s 757 mmHg 79%
    21:00 +3°C° 0 mm 3 m/s 756 mmHg 82%
    22:00 +3°C° 0 mm 3 m/s 756 mmHg 83%
    23:00 +3°C° 0 mm 3 m/s 756 mmHg 85%

    19 Janvier, Samedi

    Heure Température Précipitation Vent Pression Humidité
    00:00 +1°C° 0 mm 4 m/s 755 mmHg 86%
    01:00 +3°C° 0.2 mm 4 m/s 755 mmHg 85%
    02:00 +3°C° 0.2 mm 4 m/s 754 mmHg 85%
    03:00 +3°C° 0.2 mm 4 m/s 753 mmHg 84%
    04:00 +3°C° 0.5 mm 4 m/s 753 mmHg 85%
    05:00 +3°C° 0.5 mm 4 m/s 753 mmHg 86%
    06:00 +3°C° 0.5 mm 4 m/s 752 mmHg 87%
    07:00 +4°C° 0.1 mm 4 m/s 752 mmHg 88%
    08:00 +4°C° 0.1 mm 4 m/s 752 mmHg 88%
    09:00 +4°C° 0.1 mm 4 m/s 752 mmHg 89%
    10:00 +5°C° 0 mm 4 m/s 751 mmHg 84%
    11:00 +6°C° 0 mm 4 m/s 751 mmHg 80%
    12:00 +7°C° 0 mm 4 m/s 751 mmHg 76%
    13:00 +7°C° 0.1 mm 4 m/s 751 mmHg 75%
    14:00 +8°C° 0.1 mm 4 m/s 750 mmHg 74%
    15:00 +8°C° 0.1 mm 4 m/s 750 mmHg 73%
    16:00 +8°C° 0.2 mm 3 m/s 750 mmHg 77%
    17:00 +8°C° 0.2 mm 3 m/s 750 mmHg 82%
    18:00 +7°C° 0.2 mm 3 m/s 750 mmHg 86%
    19:00 +7°C° 0.2 mm 3 m/s 750 mmHg 88%
    20:00 +7°C° 0.2 mm 3 m/s 751 mmHg 90%
    21:00 +5°C° 0.2 mm 3 m/s 751 mmHg 91%
    22:00 +6°C° 0.2 mm 2 m/s 751 mmHg 93%
    23:00 +6°C° 0.2 mm 2 m/s 751 mmHg 94%

    20 Janvier, Dimanche

    Heure Température Précipitation Vent Pression Humidité
    00:00 +6°C° 0.2 mm 2 m/s 751 mmHg 95%
    01:00 +5°C° 0 mm 2 m/s 751 mmHg 96%
    02:00 +6°C° 0 mm 1 m/s 751 mmHg 96%
    03:00 +5°C° 0 mm 1 m/s 751 mmHg 97%
    04:00 +5°C° 0 mm 1 m/s 751 mmHg 97%
    05:00 +5°C° 0 mm 1 m/s 752 mmHg 97%
    06:00 +5°C° 0 mm 1 m/s 752 mmHg 97%
    07:00 +5°C° 0 mm 1 m/s 752 mmHg 95%
    08:00 +5°C° 0 mm 1 m/s 753 mmHg 93%
    09:00 +5°C° 0 mm 1 m/s 753 mmHg 92%
    10:00 +6°C° 0 mm 1 m/s 754 mmHg 88%
    11:00 +7°C° 0 mm 1 m/s 754 mmHg 84%
    12:00 +7°C° 0 mm 2 m/s 754 mmHg 80%
    13:00 +7°C° 0 mm 2 m/s 755 mmHg 79%
    14:00 +7°C° 0 mm 2 m/s 755 mmHg 78%
    15:00 +7°C° 0 mm 3 m/s 755 mmHg 77%
    16:00 +7°C° 0 mm 3 m/s 755 mmHg 78%
    17:00 +5°C° 0 mm 3 m/s 756 mmHg 80%
    18:00 +5°C° 0 mm 3 m/s 757 mmHg 82%
    19:00 +4°C° 0 mm 3 m/s 757 mmHg 82%
    20:00 +4°C° 0 mm 3 m/s 758 mmHg 83%
    21:00 +3°C° 0 mm 3 m/s 758 mmHg 84%
    22:00 +3°C° 0 mm 3 m/s 759 mmHg 85%
    23:00 +3°C° 0 mm 3 m/s 759 mmHg 85%

    21 Janvier, Lundi

    Heure Température Précipitation Vent Pression Humidité
    00:00 +3°C° 0 mm 4 m/s 759 mmHg 85%
    01:00 +3°C° 0 mm 4 m/s 760 mmHg 85%
    02:00 +3°C° 0 mm 4 m/s 760 mmHg 85%
    03:00 +1°C° 0 mm 4 m/s 760 mmHg 85%
    04:00 +1°C° 0 mm 4 m/s 760 mmHg 86%
    05:00 +1°C° 0 mm 4 m/s 761 mmHg 86%
    06:00 +2°C° 0 mm 3 m/s 761 mmHg 86%
    07:00 +2°C° 0 mm 3 m/s 761 mmHg 85%
    08:00 +2°C° 0 mm 3 m/s 762 mmHg 83%
    09:00 +1°C° 0 mm 4 m/s 762 mmHg 82%
    10:00 +3°C° 0 mm 3 m/s 762 mmHg 79%
    11:00 +3°C° 0 mm 3 m/s 763 mmHg 76%
    12:00 +4°C° 0 mm 3 m/s 763 mmHg 73%
    13:00 +4°C° 0 mm 3 m/s 763 mmHg 73%
    14:00 +4°C° 0 mm 3 m/s 763 mmHg 73%
    15:00 +4°C° 0 mm 3 m/s 763 mmHg 73%
    16:00 +3°C° 0 mm 3 m/s 763 mmHg 76%
    17:00 +3°C° 0 mm 3 m/s 763 mmHg 78%
    18:00 +2°C° 0 mm 3 m/s 763 mmHg 81%
    19:00 +3°C° 0 mm 2 m/s 763 mmHg 81%
    20:00 +3°C° 0 mm 2 m/s 763 mmHg 81%
    21:00 +3°C° 0 mm 2 m/s 763 mmHg 80%
    22:00 +4°C° 0 mm 1 m/s 763 mmHg 80%
    23:00 +3°C° 0 mm 1 m/s 763 mmHg 80%
    Voir plus